FW9074 Weather Reports


time (UTC)temp
F
wind
direction
speed
knots
gust
knots
rain 1hr
in
rain 24hr
in
rain mn
in
humidity
%
barometer
mb
20260507012542 54 165 0.0 0.0 0.00 0.00 0.00 86 1019.9
20260507012038 54 165 0.0 0.0 0.00 0.00 0.00 86 1020.0
20260507011536 54 165 0.0 0.0 0.00 0.00 0.00 86 1019.9
20260507011032 54 165 0.0 0.0 0.00 0.00 0.00 85 1019.9
20260507010526 55 165 0.0 0.0 0.00 0.00 0.00 85 1020.2
20260507010023 55 165 0.0 0.0 0.00 0.00 0.00 86 1020.2
20260507005521 55 165 0.0 0.0 0.00 0.00 0.00 84 1020.3
20260507005017 55 165 0.0 0.0 0.00 0.00 0.00 85 1020.3
20260507004514 54 165 0.0 0.0 0.00 0.00 0.00 86 1020.4
20260507004012 54 165 0.0 0.0 0.00 0.00 0.00 88 1020.5
20260507003507 54 165 0.0 0.0 0.00 0.00 0.00 88 1020.3
20260507003001 53 165 0.0 0.0 0.00 0.00 0.00 89 1020.4
20260507002459 53 165 0.0 0.0 0.00 0.00 0.00 90 1020.5
20260507001955 53 165 0.0 0.0 0.00 0.00 0.00 91 1020.4
20260507001452 53 165 0.0 0.0 0.00 0.00 0.00 91 1020.4
20260507000949 53 165 0.0 0.0 0.00 0.00 0.00 91 1020.5
20260507000445 53 165 0.0 0.0 0.00 0.00 0.00 90 1020.4
20260506235940 53 165 0.0 0.0 0.00 0.00 0.00 90 1020.4
20260506235438 53 165 0.0 0.0 0.00 0.00 0.00 91 1020.4
20260506234933 53 165 0.0 0.0 0.00 0.00 0.00 92 1020.5
20260506234432 53 165 0.0 0.0 0.00 0.00 0.00 92 1020.3
20260506233929 53 165 0.0 0.0 0.00 0.00 0.00 92 1020.7
20260506233425 52 165 0.0 0.0 0.00 0.00 0.00 92 1020.6
20260506232922 52 165 0.0 0.0 0.00 0.00 0.00 92 1020.6
20260506232418 52 165 0.0 0.0 0.00 0.00 0.00 92 1020.5
20260506231914 52 165 0.0 0.0 0.00 0.00 0.00 93 1020.4
20260506231412 52 165 0.0 0.0 0.00 0.00 0.00 92 1020.4
20260506230909 52 165 0.0 0.0 0.00 0.00 0.00 92 1020.6
20260506230405 52 165 0.0 0.0 0.00 0.00 0.00 92 1020.5
20260506225902 52 165 0.0 0.0 0.00 0.00 0.00 92 1020.2
20260506225359 52 165 0.0 0.0 0.00 0.00 0.00 91 1020.4
20260506224856 52 165 0.0 0.0 0.00 0.00 0.00 90 1020.3
20260506224353 52 165 0.0 0.0 0.00 0.00 0.00 90 1020.3
20260506223849 53 165 0.0 0.0 0.00 0.00 0.00 88 1020.4
20260506223345 53 165 0.0 0.0 0.00 0.00 0.00 87 1020.4
20260506222842 54 165 0.0 0.0 0.00 0.00 0.00 88 1020.5
20260506222338 54 165 0.0 0.0 0.00 0.00 0.00 87 1020.6
20260506221836 54 165 0.0 0.0 0.00 0.00 0.00 86 1020.5
20260506221333 54 165 0.0 0.0 0.00 0.00 0.00 84 1020.3
20260506220831 55 165 0.0 0.0 0.00 0.00 0.00 82 1020.6
20260506220326 56 165 0.0 0.9 0.00 0.00 0.00 79 1020.4
20260506215823 57 165 0.0 0.9 0.00 0.00 0.00 78 1020.5
20260506215318 57 165 0.0 0.0 0.00 0.00 0.00 78 1020.4
20260506214814 57 165 0.0 0.0 0.00 0.00 0.00 79 1020.5
20260506214311 57 165 0.0 0.0 0.00 0.00 0.00 78 1020.4
20260506213810 58 165 0.0 0.0 0.00 0.00 0.00 77 1020.3
20260506213306 57 165 0.0 0.0 0.00 0.00 0.00 79 1020.4
20260506212804 57 165 0.0 0.0 0.00 0.00 0.00 79 1020.4
20260506212259 57 165 0.0 0.0 0.00 0.00 0.00 78 1020.7
20260506211754 57 165 0.0 0.0 0.00 0.00 0.00 78 1020.5
20260506211251 57 165 0.0 0.0 0.00 0.00 0.00 77 1020.5
20260506210748 57 165 0.0 0.0 0.00 0.00 0.00 77 1020.3
20260506210245 58 165 0.0 0.0 0.00 0.00 0.00 76 1020.5
20260506205742 58 165 0.0 0.0 0.00 0.00 0.00 76 1020.5
20260506205238 58 165 0.0 0.0 0.00 0.00 0.00 75 1020.5
20260506204735 59 165 0.0 0.0 0.00 0.00 0.00 75 1020.4
20260506204232 59 165 0.0 0.0 0.00 0.00 0.00 73 1020.3
20260506203730 60 165 0.0 0.0 0.00 0.00 0.00 73 1020.2
20260506203227 60 164 0.0 0.0 0.00 0.00 0.00 75 1020.3
20260506202724 60 164 0.0 0.0 0.00 0.00 0.00 77 1020.0
20260506202220 59 164 0.0 0.0 0.00 0.00 0.00 77 1020.2
20260506201712 59 164 0.0 0.0 0.00 0.00 0.00 77 1020.2
20260506201209 58 165 0.0 0.0 0.00 0.00 0.00 78 1020.0
20260506200706 57 165 0.0 0.0 0.00 0.00 0.00 80 1019.8
20260506200203 57 165 0.0 0.0 0.00 0.00 0.00 80 1019.9
20260506195659 56 165 0.0 0.0 0.00 0.00 0.00 81 1020.2
20260506195155 56 165 0.0 0.0 0.00 0.00 0.00 84 1020.0
20260506194653 56 165 0.0 0.0 0.00 0.00 0.00 84 1020.0
20260506194149 55 165 0.0 0.0 0.00 0.00 0.00 85 1020.2
20260506193647 55 165 0.0 0.0 0.00 0.00 0.00 85 1020.2
20260506193144 55 165 0.0 0.0 0.00 0.00 0.00 85 1019.9
20260506192640 55 165 0.0 0.0 0.00 0.00 0.00 84 1020.0
20260506192136 55 165 0.0 0.9 0.00 0.00 0.00 84 1019.9
20260506191634 55 165 0.0 0.9 0.00 0.00 0.00 83 1019.9
20260506191129 56 165 0.0 2.6 0.00 0.00 0.00 82 1019.8
20260506190627 56 165 0.0 0.0 0.00 0.00 0.00 82 1019.9
20260506190124 56 165 0.0 0.0 0.00 0.00 0.00 82 1019.8
20260506185621 56 165 0.0 1.7 0.00 0.00 0.00 81 1020.0
20260506185117 56 165 0.0 0.0 0.00 0.00 0.00 82 1020.0
20260506184614 56 165 0.0 2.6 0.00 0.00 0.00 82 1019.7
20260506184111 56 165 0.0 0.9 0.00 0.00 0.00 81 1020.0
20260506183608 57 165 0.0 0.9 0.00 0.00 0.00 81 1019.8
20260506183104 57 165 0.0 1.7 0.00 0.00 0.00 80 1019.6
20260506182602 57 165 0.0 0.0 0.00 0.00 0.00 79 1019.4
20260506182059 57 165 0.0 0.0 0.00 0.00 0.00 81 1019.6
20260506181557 57 165 0.0 0.0 0.00 0.00 0.00 82 1019.5
20260506181053 57 165 0.0 0.0 0.00 0.00 0.00 81 1019.4
20260506180550 57 165 0.0 0.0 0.00 0.00 0.00 83 1019.5
20260506180047 56 165 0.0 0.0 0.00 0.00 0.00 84 1019.6
20260506175543 56 165 0.0 0.0 0.00 0.00 0.00 86 1019.4
20260506175039 55 165 0.0 0.0 0.00 0.00 0.00 85 1019.7
20260506174538 55 165 0.0 0.0 0.00 0.00 0.00 85 1019.9
20260506174033 55 165 0.0 0.0 0.00 0.00 0.00 84 1019.7
20260506173532 55 165 0.0 0.0 0.00 0.00 0.00 85 1019.7
20260506173028 55 165 0.0 1.7 0.00 0.00 0.00 85 1019.7
20260506172526 55 165 0.0 0.0 0.00 0.00 0.00 85 1019.9
20260506172022 55 165 0.0 1.7 0.00 0.00 0.00 85 1019.9
20260506171519 55 165 0.9 1.7 0.00 0.00 0.00 84 1019.7
20260506171017 56 165 0.0 0.0 0.00 0.00 0.00 85 1019.5
20260506170515 55 165 0.0 0.0 0.00 0.00 0.00 87 1019.5
20260506170012 55 165 0.0 0.0 0.00 0.00 0.00 87 1019.9
20260506165510 55 165 0.0 0.0 0.00 0.00 0.00 85 1019.3
20260506165006 55 165 0.0 0.0 0.00 0.00 0.00 85 1019.2
20260506164503 55 165 0.0 0.0 0.00 0.00 0.00 85 1019.0
20260506164000 55 165 0.0 0.0 0.00 0.00 0.00 86 1019.2
20260506163455 55 165 0.0 0.0 0.00 0.00 0.00 85 1019.0
20260506162950 55 165 0.0 0.0 0.00 0.00 0.00 86 1018.8
20260506162448 55 165 0.0 0.0 0.00 0.00 0.00 86 1018.9
20260506161945 54 165 0.0 0.0 0.00 0.00 0.00 87 1018.9
20260506161443 54 165 0.0 0.0 0.00 0.00 0.00 88 1018.9
20260506160940 54 165 0.0 0.0 0.00 0.00 0.00 89 1019.0
20260506160438 53 165 0.0 0.0 0.00 0.00 0.00 89 1019.2
20260506155935 54 165 0.0 0.9 0.00 0.00 0.00 88 1019.5
20260506155433 54 165 0.0 0.0 0.00 0.00 0.00 88 1019.4
20260506153559 55 165 0.0 0.0 0.00 0.00 0.00 86 1019.1
20260506153057 54 165 0.0 0.0 0.00 0.00 0.00 86 1019.1
20260506152553 54 165 0.0 0.0 0.00 0.00 0.00 88 1019.0
20260506152052 54 165 0.0 0.0 0.00 0.00 0.00 88 1019.1
20260506151549 54 165 0.0 0.0 0.00 0.00 0.00 88 1019.1
20260506151046 53 165 0.0 0.0 0.00 0.00 0.00 89 1019.1
20260506150542 53 165 0.0 0.0 0.00 0.00 0.00 89 1019.1
20260506150040 53 165 0.0 0.0 0.00 0.00 0.00 89 1019.2
20260506145536 53 165 0.0 0.0 0.00 0.00 0.00 88 1019.1
20260506145034 53 164 0.0 0.0 0.00 0.00 0.00 89 1019.3
20260506144530 53 164 0.0 0.0 0.00 0.00 0.00 90 1018.9
20260506144028 53 164 0.0 0.0 0.00 0.00 0.00 90 1019.1
20260506143525 53 164 0.0 0.0 0.00 0.00 0.00 90 1018.8
20260506143024 53 164 0.0 0.0 0.00 0.00 0.00 91 1019.0
20260506142521 53 164 0.0 0.0 0.00 0.00 0.00 92 1019.0
20260506142019 52 164 0.0 0.0 0.00 0.00 0.00 92 1018.8
20260506141517 52 164 0.0 0.0 0.00 0.00 0.00 92 1019.0
20260506141015 52 164 0.0 0.0 0.00 0.00 0.00 92 1019.3
20260506140512 52 164 0.0 0.0 0.00 0.00 0.00 92 1019.2
20260506140009 52 164 0.0 0.0 0.00 0.00 0.00 92 1019.0
20260506135506 52 164 0.0 0.0 0.00 0.00 0.00 93 1019.1
20260506135002 52 164 0.0 0.0 0.00 0.00 0.00 93 1019.0
20260506134458 52 164 0.0 0.0 0.00 0.00 0.00 94 1018.9
20260506133954 51 164 0.0 0.0 0.00 0.00 0.00 94 1018.5
20260506133452 51 164 0.0 0.0 0.00 0.00 0.00 94 1018.7
20260506132948 51 164 0.0 0.0 0.00 0.00 0.00 94 1018.5
20260506132445 51 164 0.0 0.0 0.00 0.00 0.00 95 1018.2
20260506131943 51 164 0.0 0.0 0.00 0.00 0.00 95 1018.3
20260506131439 51 164 0.0 0.0 0.00 0.00 0.00 95 1018.5
20260506130936 51 164 0.0 0.0 0.00 0.00 0.00 95 1018.7
20260506130433 51 164 0.0 0.0 0.00 0.00 0.00 95 1018.5
20260506125931 51 164 0.0 0.0 0.00 0.00 0.00 95 1018.6
20260506125429 51 164 0.0 0.0 0.00 0.00 0.00 95 1018.3
20260506124927 51 164 0.0 0.0 0.00 0.00 0.00 95 1018.2
20260506124424 51 164 0.0 0.0 0.00 0.00 0.00 95 1018.0
20260506123922 51 164 0.0 0.0 0.00 0.00 0.00 95 1018.2
20260506123420 51 164 0.0 0.0 0.00 0.00 0.00 95 1018.1
20260506122917 51 164 0.0 0.0 0.00 0.00 0.00 95 1018.4
20260506122413 51 164 0.0 0.0 0.00 0.00 0.00 95 1018.4
20260506121912 51 164 0.0 0.0 0.00 0.00 0.00 95 1018.1
20260506121408 51 164 0.0 0.0 0.00 0.00 0.00 95 1018.1
20260506120905 51 165 0.0 0.0 0.00 0.00 0.00 95 1018.0
20260506120403 51 165 0.0 0.0 0.00 0.00 0.00 95 1018.0
20260506115900 51 165 0.0 0.0 0.00 0.00 0.00 95 1017.9
20260506115358 51 165 0.0 0.0 0.00 0.00 0.00 95 1017.8
20260506114856 51 165 0.0 0.0 0.00 0.00 0.00 96 1018.0
20260506114353 51 165 0.0 0.0 0.00 0.00 0.00 96 1018.0
20260506113853 51 165 0.0 0.0 0.00 0.00 0.00 96 1017.9
20260506113349 51 165 0.0 0.0 0.00 0.00 0.00 96 1017.9
20260506112846 51 165 0.0 0.0 0.00 0.00 0.00 96 1017.9
20260506112343 51 165 0.0 0.0 0.00 0.00 0.00 96 1017.9
20260506111840 51 165 0.0 0.0 0.00 0.00 0.00 96 1017.9
20260506111338 51 165 0.0 0.0 0.00 0.00 0.00 96 1017.9
20260506110836 51 165 0.0 0.0 0.00 0.00 0.00 96 1018.1
20260506110333 51 165 0.0 0.0 0.00 0.00 0.00 96 1017.8
20260506105829 51 165 0.0 0.0 0.00 0.00 0.00 96 1017.8
20260506105326 51 165 0.0 0.0 0.00 0.00 0.00 96 1017.6
20260506104823 51 165 0.0 0.0 0.00 0.00 0.00 96 1017.7
20260506104321 51 165 0.0 0.0 0.00 0.00 0.00 96 1017.9
20260506103818 51 165 0.0 0.0 0.00 0.00 0.00 96 1017.6
20260506103316 51 165 0.0 0.0 0.00 0.00 0.00 96 1017.6
20260506102813 51 165 0.0 0.0 0.00 0.00 0.00 96 1017.4
20260506102311 51 165 0.0 0.0 0.00 0.00 0.00 96 1017.5
20260506101808 51 165 0.0 0.0 0.00 0.00 0.00 96 1017.2
20260506101304 51 165 0.0 0.0 0.00 0.00 0.00 96 1017.3
20260506100802 51 165 0.0 0.0 0.00 0.00 0.00 96 1017.3
20260506100300 51 165 0.0 0.0 0.00 0.00 0.00 96 1017.3
20260506095758 51 165 0.0 0.0 0.00 0.00 0.00 96 1017.1
20260506095255 51 165 0.0 0.0 0.00 0.00 0.00 96 1017.3
20260506094751 51 165 0.0 0.0 0.00 0.00 0.00 96 1017.2
20260506094250 51 165 0.0 0.0 0.00 0.00 0.00 96 1017.2
20260506093748 51 165 0.0 0.0 0.00 0.00 0.00 96 1017.2
20260506092525 50 165 0.0 0.0 0.00 0.00 0.00 96 1017.0
20260506092021 50 165 0.0 0.0 0.00 0.00 0.00 96 1017.0
20260506091520 50 165 0.0 0.0 0.00 0.00 0.00 96 1017.0
20260506091016 50 165 0.0 0.0 0.00 0.00 0.00 96 1017.0
20260506090514 50 165 0.0 0.0 0.00 0.00 0.00 95 1016.6
20260506090010 50 165 0.0 0.0 0.00 0.00 0.00 95 1016.8
20260506085507 50 165 0.0 0.0 0.00 0.00 0.00 95 1016.8
20260506085004 50 165 0.0 0.0 0.00 0.00 0.00 95 1016.6
20260506084501 50 165 0.0 0.0 0.00 0.00 0.00 95 1016.4
20260506083956 50 165 0.0 0.0 0.00 0.00 0.00 95 1016.5
20260506083454 49 165 0.0 0.0 0.00 0.00 0.00 95 1016.8
20260506082951 49 165 0.0 0.0 0.00 0.00 0.00 95 1016.6
20260506082448 49 165 0.0 0.0 0.00 0.00 0.00 95 1016.7
20260506081944 49 165 0.0 0.0 0.00 0.00 0.00 95 1016.6
20260506081442 49 165 0.0 0.0 0.00 0.00 0.00 95 1016.7
20260506080939 49 165 0.0 0.0 0.00 0.00 0.00 95 1016.8
20260506080436 49 165 0.0 0.0 0.00 0.00 0.00 95 1016.8
20260506073420 49 165 0.0 0.0 0.00 0.00 0.00 94 1016.6
20260506072917 49 165 0.0 0.0 0.00 0.00 0.00 94 1016.7
20260506072414 49 165 0.0 0.0 0.00 0.00 0.00 93 1016.8
20260506071912 49 165 0.0 0.0 0.00 0.00 0.00 93 1016.6
20260506071410 49 165 0.0 0.0 0.00 0.00 0.00 93 1016.7
20260506070907 49 165 0.0 0.0 0.00 0.00 0.00 93 1016.6
20260506070403 49 165 0.0 0.0 0.00 0.00 0.00 93 1016.6
20260506062341 51 165 0.0 0.0 0.00 0.00 0.00 93 1016.0
20260506061837 51 165 0.0 0.0 0.00 0.00 0.00 93 1016.1
20260506061333 51 165 0.0 0.0 0.00 0.00 0.00 93 1016.1
20260506060832 51 165 0.0 0.0 0.00 0.00 0.00 93 1016.0
20260506060329 51 165 0.0 0.0 0.00 0.00 0.00 92 1015.9
20260506051301 52 165 0.0 0.0 0.00 0.00 0.00 90 1015.7
20260506050759 52 165 0.0 0.0 0.00 0.00 0.00 90 1015.5
20260506050256 52 165 0.0 0.0 0.00 0.00 0.00 90 1015.7
20260506044747 53 165 0.0 0.0 0.00 0.00 0.00 89 1015.3
20260506044244 53 165 0.0 0.0 0.00 0.00 0.00 89 1015.7
20260506043741 53 165 0.0 0.0 0.00 0.00 0.00 88 1015.5
20260506043239 53 165 0.0 0.0 0.00 0.00 0.00 88 1015.4
20260506042737 53 165 0.0 0.0 0.00 0.00 0.00 87 1015.7
20260506042236 53 165 0.0 0.0 0.00 0.00 0.00 87 1015.4
20260506041734 54 165 0.0 0.0 0.00 0.00 0.00 86 1015.3
20260506041230 54 165 0.0 0.0 0.00 0.00 0.00 85 1015.5
20260506040728 54 165 0.0 0.0 0.00 0.00 0.00 84 1015.4
20260506040225 55 165 0.0 0.0 0.00 0.00 0.00 84 1015.5
20260506035721 55 165 0.0 0.0 0.00 0.00 0.00 84 1015.3
20260506035218 55 165 0.0 0.0 0.00 0.00 0.00 83 1015.2
20260506034715 55 165 0.0 0.0 0.00 0.00 0.00 82 1015.2
20260506034212 55 165 0.0 0.0 0.00 0.00 0.00 82 1015.0
20260506033710 56 165 0.0 0.0 0.00 0.00 0.00 81 1015.1
20260506033206 56 165 0.0 0.0 0.00 0.00 0.00 81 1015.1
20260506032703 56 165 0.0 0.0 0.00 0.00 0.00 81 1015.1
20260506032201 56 165 0.0 0.0 0.00 0.00 0.00 80 1015.1
20260506031657 57 165 0.0 0.0 0.00 0.00 0.00 79 1014.9
20260506031154 57 165 0.0 0.0 0.00 0.00 0.00 78 1015.1
20260506030653 58 165 0.0 0.0 0.00 0.00 0.00 78 1015.1
20260506030150 58 165 0.0 0.0 0.00 0.00 0.00 76 1014.9
20260506025646 58 164 0.0 0.0 0.00 0.00 0.00 76 1014.9
20260506025142 59 164 0.0 0.0 0.00 0.00 0.00 76 1014.9
20260506024640 59 164 0.0 0.0 0.00 0.00 0.00 75 1014.7
20260506024136 59 164 0.0 0.0 0.00 0.00 0.00 74 1014.8
20260506023633 59 164 0.0 0.0 0.00 0.00 0.00 74 1014.7
20260506023130 59 164 0.0 0.0 0.00 0.00 0.00 74 1014.8
20260506022627 59 164 0.0 0.0 0.00 0.00 0.00 73 1014.8
20260506022124 60 164 0.0 0.0 0.00 0.00 0.00 73 1014.6
20260506021622 60 164 0.0 0.0 0.00 0.00 0.00 73 1014.9
20260506021119 60 164 0.0 0.0 0.00 0.00 0.00 73 1014.8
20260506020616 60 164 0.0 0.0 0.00 0.00 0.00 73 1014.8
20260506020114 60 164 0.0 0.0 0.00 0.00 0.00 72 1014.7
20260506015611 60 164 0.0 0.0 0.00 0.00 0.00 71 1014.7
20260506015108 60 164 0.0 0.0 0.00 0.00 0.00 71 1014.6
20260506014606 61 164 0.0 0.0 0.00 0.00 0.00 70 1014.6
20260506014101 61 164 0.0 0.0 0.00 0.00 0.00 69 1014.7
20260506013559 62 164 0.0 0.0 0.00 0.00 0.00 69 1014.8
20260506013055 62 164 0.0 0.0 0.00 0.00 0.00 68 1014.7